period_start,C,m1,H,J0,J1,J2,J3,J4,J5,JA,JB,JC,JD,JJ,JK,JN,#
2014-09-10 00:01:31,0.07,0.74,0.00,27.26,31.62,33.90,9.52,40.78,1010.28,2018.99,3144.22,3087.48,3314.00,500.09,486.76,30.52,0000 0000 0000 0000 000000
2014-09-10 00:06:32,0.07,0.74,0.00,27.27,31.61,33.89,9.45,40.73,1010.27,2018.99,3142.69,3086.73,3313.01,500.00,486.60,30.56,0000 0000 0000 0000 000000
2014-09-10 00:11:34,0.07,0.74,0.00,27.27,31.60,33.88,9.44,40.94,1010.27,2018.99,3141.01,3085.83,3311.94,499.83,486.46,30.60,0000 0000 0000 0000 000000
2014-09-10 00:16:35,0.08,0.75,0.00,27.27,31.60,33.88,9.34,40.92,1010.27,2018.99,3139.47,3084.97,3310.85,500.00,486.42,30.64,0000 0000 0000 0000 000000
2014-09-10 00:21:36,0.06,0.75,0.00,27.29,31.60,33.89,9.34,40.77,1010.27,2018.99,3138.18,3084.13,3309.98,499.62,486.43,30.68,0000 0000 0000 0000 000000
2014-09-10 00:26:37,0.08,0.75,0.00,27.30,31.60,33.87,9.35,40.70,1010.25,2018.99,3136.80,3083.34,3309.02,499.95,486.56,30.73,0000 0000 0000 0000 000000
2014-09-10 00:31:38,0.07,0.76,0.00,27.30,31.60,33.87,9.44,40.74,1010.10,2018.99,3135.36,3082.50,3308.02,500.22,486.58,30.77,0000 0000 0000 0000 000000
2014-09-10 00:36:40,0.07,0.76,0.00,27.32,31.60,33.89,9.45,40.71,1009.82,2018.99,3134.02,3081.70,3307.00,500.11,486.35,30.81,0000 0000 0000 0000 000000
2014-09-10 00:41:41,0.07,0.76,0.00,27.34,31.60,33.88,9.40,40.67,1009.79,2018.99,3132.45,3080.84,3306.00,499.96,486.16,30.85,0000 0000 0000 0000 000000
2014-09-10 00:46:42,0.07,0.77,0.00,27.36,31.60,33.88,9.37,40.71,1009.78,2018.99,3130.92,3080.01,3305.04,499.86,486.09,30.89,0000 0000 0000 0000 000000
2014-09-10 00:51:43,0.08,0.77,0.00,27.36,31.61,33.89,9.37,40.77,1009.78,2018.99,3129.50,3079.14,3304.01,499.95,486.33,30.94,0000 0000 0000 0000 000000
2014-09-10 00:56:45,0.07,0.77,0.00,27.37,31.62,33.89,9.36,40.86,1009.78,2018.99,3128.08,3078.16,3303.03,499.90,486.04,30.98,0000 0000 0000 0000 000000
2014-09-10 01:01:46,0.10,0.77,0.00,27.40,31.62,33.89,9.28,40.96,1009.74,2018.99,3126.60,3077.21,3301.87,500.01,486.12,31.02,0000 0000 0000 0000 000000
2014-09-10 01:06:47,0.13,0.78,0.00,27.44,31.63,33.90,9.40,40.85,1009.76,2018.99,3124.56,3075.54,3300.10,500.26,486.37,31.06,0000 0000 0000 0000 000000
2014-09-10 01:11:48,0.05,0.78,0.00,27.47,31.65,33.90,9.33,40.95,1009.74,2018.99,3123.29,3074.84,3298.98,499.77,485.89,31.10,0000 0000 0000 0000 000000
2014-09-10 01:16:49,0.07,0.79,0.00,27.49,31.65,33.90,9.36,40.89,1009.44,2018.99,3122.07,3073.99,3298.11,499.99,485.83,31.15,0000 0000 0000 0000 000000
2014-09-10 01:21:50,0.07,0.79,0.00,27.52,31.67,33.92,9.39,40.77,1009.31,2018.98,3120.79,3073.13,3297.13,499.96,485.54,31.19,0000 0000 0000 0000 000000
2014-09-10 01:26:51,0.06,0.79,0.00,27.54,31.69,33.93,9.35,40.78,1009.30,2018.97,3119.66,3072.55,3296.41,499.88,485.59,31.23,0000 0000 0000 0000 000000
2014-09-10 01:31:52,0.06,0.79,0.00,27.58,31.70,33.95,9.42,40.88,1009.28,2018.93,3118.38,3071.71,3295.46,500.18,485.79,31.27,0000 0000 0000 0000 000000
2014-09-10 01:36:53,0.07,0.80,0.00,27.60,31.71,33.97,9.31,40.82,1009.23,2018.83,3116.78,3070.85,3294.26,499.75,485.41,31.31,0000 0000 0000 0000 000000
2014-09-10 01:41:55,0.03,0.80,0.00,27.64,31.72,33.97,9.33,40.83,1009.27,2018.62,3115.30,3069.92,3293.16,499.84,485.69,31.35,0000 0000 0000 0000 000000
2014-09-10 01:46:56,0.12,0.80,0.00,27.67,31.74,33.99,9.38,41.00,1009.29,2018.21,3113.09,3068.47,3291.51,500.46,485.90,31.40,0000 0000 0000 0000 000000
2014-09-10 01:51:57,0.09,0.81,0.00,27.67,31.75,34.02,9.31,40.79,1009.26,2018.08,3110.68,3066.93,3289.71,499.68,485.22,31.44,0000 0000 0000 0000 000000
2014-09-10 01:56:58,0.08,0.81,0.00,27.73,31.77,34.03,9.38,40.88,1008.98,2018.06,3109.10,3065.95,3288.59,500.34,485.32,31.48,0000 0000 0000 0000 000000
2014-09-10 02:01:59,0.09,0.82,0.00,27.77,31.78,34.05,9.36,40.99,1008.81,2018.02,3107.35,3064.85,3287.39,500.32,485.37,31.52,0000 0000 0000 0000 000000
2014-09-10 02:07:00,0.10,0.82,0.00,27.79,31.80,34.07,9.28,40.76,1008.81,2018.00,3105.56,3063.72,3286.10,499.76,484.68,31.56,0000 0000 0000 0000 000000
2014-09-10 02:12:01,0.08,0.82,0.00,27.83,31.82,34.08,9.34,40.91,1008.77,2018.00,3103.92,3062.74,3284.85,500.10,485.25,31.61,0000 0000 0000 0000 000000
2014-09-10 02:17:02,0.08,0.83,0.00,27.86,31.84,34.10,9.40,40.82,1008.73,2018.00,3102.22,3061.78,3283.72,500.43,485.40,31.65,0000 0000 0000 0000 000000
2014-09-10 02:22:04,0.09,0.83,0.00,27.90,31.85,34.12,9.35,40.63,1008.72,2017.99,3100.59,3060.78,3282.58,500.05,484.77,31.69,0000 0000 0000 0000 000000
2014-09-10 02:27:05,0.05,0.83,0.00,27.91,31.87,34.15,9.32,40.87,1008.79,2017.92,3099.33,3059.87,3281.52,499.91,484.74,31.73,0000 0000 0000 0000 000000
2014-09-10 02:32:06,0.04,0.84,0.00,27.93,31.90,34.17,9.26,40.82,1008.76,2017.73,3098.02,3059.03,3280.61,499.76,484.64,31.77,0000 0000 0000 0000 000000
2014-09-10 02:37:07,0.07,0.84,0.00,27.96,31.91,34.18,9.36,40.77,1008.67,2017.66,3096.68,3058.23,3279.75,499.88,484.62,31.82,0000 0000 0000 0000 000000
2014-09-10 02:42:09,0.02,0.84,0.00,27.99,31.94,34.20,9.43,40.67,1008.39,2017.32,3095.50,3057.43,3278.76,500.30,484.78,31.86,0000 0000 0000 0000 000000
2014-09-10 02:47:10,0.05,0.84,0.00,28.01,31.96,34.22,9.39,40.77,1008.32,2017.10,3094.16,3056.56,3277.80,500.03,484.39,31.90,0000 0000 0000 0000 000000
2014-09-10 02:52:11,0.05,0.85,0.00,28.05,31.99,34.26,9.35,40.54,1008.31,2017.01,3092.85,3055.83,3276.81,499.97,484.37,31.94,0000 0000 0000 0000 000000
2014-09-10 02:57:12,0.06,0.85,0.00,28.07,32.01,34.29,9.35,40.69,1008.26,2017.00,3091.76,3054.98,3275.88,500.11,484.33,31.98,0000 0000 0000 0000 000000
2014-09-10 03:02:13,0.07,0.85,0.00,28.09,32.04,34.31,9.32,40.64,1007.99,2017.00,3090.65,3054.10,3274.97,499.69,483.88,32.03,0000 0000 0000 0000 000000
2014-09-10 03:07:14,0.07,0.85,0.00,28.10,32.06,34.33,9.30,40.77,1008.13,2016.99,3089.49,3053.40,3274.08,499.69,483.92,32.07,0000 0000 0000 0000 000000
2014-09-10 03:12:16,0.10,0.86,0.00,28.12,32.09,34.35,9.35,40.77,1007.99,2016.97,3087.62,3052.40,3272.85,500.35,484.41,32.11,0000 0000 0000 0000 000000
2014-09-10 03:17:17,0.10,0.86,0.00,28.15,32.12,34.38,9.34,40.83,1007.97,2016.95,3085.61,3051.22,3271.54,499.96,484.09,32.15,0000 0000 0000 0000 000000
2014-09-10 03:22:18,0.08,0.87,0.00,28.17,32.15,34.40,9.29,40.56,1007.91,2016.89,3083.74,3050.01,3270.21,499.63,483.81,32.19,0000 0000 0000 0000 000000
2014-09-10 03:27:20,0.05,0.87,0.00,28.17,32.17,34.43,9.36,40.87,1007.86,2016.48,3081.90,3048.85,3268.85,500.08,483.95,32.23,0000 0000 0000 0000 000000
2014-09-10 03:32:21,0.06,0.87,0.00,28.21,32.20,34.46,9.38,40.97,1007.85,2016.07,3080.22,3047.77,3267.58,500.36,484.26,32.28,0000 0000 0000 0000 000000
2014-09-10 03:37:22,0.18,0.87,0.00,28.23,32.21,34.47,9.31,40.86,1007.83,2016.02,3077.55,3045.90,3265.63,499.98,483.84,32.32,0000 0000 0000 0000 000000
2014-09-10 03:42:23,0.40,0.89,0.00,28.25,32.24,34.50,9.29,40.86,1007.83,2016.00,3070.78,3040.76,3260.14,500.23,484.08,32.36,0000 0000 0000 0000 000000
2014-09-10 03:47:25,0.31,0.91,0.00,28.28,32.26,34.53,9.33,40.76,1007.81,2016.00,3066.54,3036.96,3255.98,500.00,483.77,32.40,0000 0000 0000 0000 000000
2014-09-10 03:52:26,0.11,0.91,0.00,28.30,32.28,34.55,9.37,40.98,1007.70,2016.00,3064.27,3035.60,3254.40,500.03,483.71,32.44,0000 0000 0000 0000 000000
2014-09-10 03:57:27,0.10,0.92,0.00,28.31,32.30,34.57,9.30,40.75,1007.59,2016.00,3062.27,3034.42,3252.96,500.01,483.75,32.48,0000 0000 0000 0000 000000
2014-09-10 04:02:28,0.10,0.92,0.00,28.32,32.32,34.59,9.32,40.73,1007.43,2015.99,3060.34,3033.20,3251.60,499.91,483.34,32.52,0000 0000 0000 0000 000000
2014-09-10 04:07:29,0.11,0.93,0.00,28.32,32.34,34.61,9.28,40.77,1007.57,2015.97,3058.18,3031.88,3250.04,500.11,483.83,32.57,0000 0000 0000 0000 000000
2014-09-10 04:12:30,0.11,0.93,0.00,28.34,32.36,34.63,9.40,40.67,1007.40,2015.93,3056.22,3030.65,3248.64,500.25,483.72,32.61,0000 0000 0000 0000 000000
2014-09-10 04:17:31,0.08,0.93,0.00,28.35,32.37,34.66,9.26,40.67,1007.36,2015.84,3054.24,3029.50,3247.38,499.78,483.12,32.65,0000 0000 0000 0000 000000
2014-09-10 04:22:32,0.06,0.94,0.00,28.37,32.40,34.67,9.30,40.66,1007.36,2015.65,3052.33,3028.41,3246.02,500.07,483.42,32.69,0000 0000 0000 0000 000000
2014-09-10 04:27:33,0.06,0.94,0.00,28.40,32.41,34.68,9.27,40.55,1007.35,2015.27,3050.47,3027.24,3244.69,499.94,483.20,32.73,0000 0000 0000 0000 000000
2014-09-10 04:32:34,0.10,0.94,0.00,28.41,32.42,34.71,9.30,40.75,1007.34,2015.10,3048.54,3026.08,3243.37,500.09,483.49,32.77,0000 0000 0000 0000 000000
2014-09-10 04:37:36,0.09,0.95,0.00,28.41,32.45,34.72,9.29,40.65,1007.33,2015.07,3046.73,3025.02,3242.11,499.87,483.21,32.82,0000 0000 0000 0000 000000
2014-09-10 04:42:37,0.10,0.95,0.00,28.41,32.46,34.74,9.27,40.75,1007.33,2015.03,3044.86,3024.01,3240.84,499.99,483.36,32.86,0000 0000 0000 0000 000000
2014-09-10 04:47:38,0.08,0.96,0.00,28.42,32.47,34.74,9.31,40.85,1007.30,2015.02,3043.44,3023.01,3239.71,500.34,483.47,32.90,0000 0000 0000 0000 000000
2014-09-10 04:52:39,0.08,0.96,0.00,28.43,32.49,34.77,9.28,40.78,1007.30,2015.00,3041.84,3021.97,3238.63,500.11,483.15,32.94,0000 0000 0000 0000 000000
2014-09-10 04:57:39,0.08,0.96,0.00,28.45,32.50,34.78,9.29,40.82,1007.33,2015.00,3040.20,3020.98,3237.45,499.78,483.01,32.98,0000 0000 0000 0000 000000
2014-09-10 05:02:41,0.09,0.97,0.00,28.45,32.52,34.81,9.37,40.68,1007.11,2014.99,3038.28,3020.04,3236.32,500.39,483.38,33.02,0000 0000 0000 0000 000000
2014-09-10 05:07:42,0.09,0.97,0.00,28.46,32.53,34.81,9.30,40.67,1006.90,2014.99,3036.63,3019.03,3235.17,499.85,482.95,33.06,0000 0000 0000 0000 000000
2014-09-10 05:12:43,0.08,0.98,0.00,28.47,32.55,34.82,9.32,40.79,1006.91,2014.99,3035.06,3018.06,3234.02,500.05,482.96,33.11,0000 0000 0000 0000 000000
2014-09-10 05:17:44,0.09,0.98,0.00,28.48,32.56,34.83,9.31,40.56,1006.87,2014.98,3033.49,3017.10,3232.88,499.71,482.79,33.15,0000 0000 0000 0000 000000
2014-09-10 05:22:45,0.08,0.98,0.00,28.49,32.57,34.84,9.36,40.76,1006.85,2014.96,3031.90,3016.15,3231.82,500.16,483.13,33.19,0000 0000 0000 0000 000000
2014-09-10 05:27:46,0.08,0.99,0.00,28.50,32.59,34.86,9.36,40.63,1006.85,2014.94,3030.38,3015.24,3230.71,500.25,483.14,33.23,0000 0000 0000 0000 000000
2014-09-10 05:32:47,0.06,0.99,0.00,28.50,32.60,34.88,9.23,40.63,1006.85,2014.78,3028.90,3014.28,3229.59,499.82,482.76,33.27,0000 0000 0000 0000 000000
2014-09-10 05:37:48,0.05,0.99,0.00,28.50,32.60,34.87,9.35,40.95,1006.85,2014.54,3027.45,3013.43,3228.61,500.29,483.21,33.31,0000 0000 0000 0000 000000
2014-09-10 05:42:50,0.08,0.99,0.00,28.51,32.62,34.89,9.22,40.90,1006.81,2014.59,3025.97,3012.72,3227.68,499.87,482.82,33.36,0000 0000 0000 0000 000000
2014-09-10 05:47:51,0.03,1.00,0.00,28.51,32.62,34.90,9.26,40.90,1006.53,2014.41,3024.72,3011.98,3226.79,499.95,482.77,33.40,0000 0000 0000 0000 000000
2014-09-10 05:52:53,0.05,1.00,0.00,28.50,32.63,34.91,9.34,40.82,1006.44,2014.26,3023.82,3011.14,3225.98,500.04,482.81,33.44,0000 0000 0000 0000 000000
2014-09-10 05:57:54,0.08,1.00,0.00,28.52,32.65,34.92,9.32,40.65,1006.37,2014.16,3022.50,3010.56,3225.13,500.17,482.81,33.48,0000 0000 0000 0000 000000
2014-09-10 06:02:55,0.05,1.00,0.00,28.52,32.65,34.93,9.27,40.92,1006.36,2014.17,3021.22,3009.91,3224.35,499.95,482.44,33.52,0000 0000 0000 0000 000000
2014-09-10 06:07:57,0.05,1.01,0.00,28.52,32.67,34.94,9.36,40.91,1006.36,2014.08,3020.07,3009.08,3223.50,500.25,483.12,33.56,0000 0000 0000 0000 000000
2014-09-10 06:12:58,0.06,1.01,0.00,28.52,32.67,34.94,9.39,40.92,1006.36,2014.09,3018.93,3008.48,3222.77,500.36,483.04,33.61,0000 0000 0000 0000 000000
2014-09-10 06:18:00,0.04,1.01,0.00,28.51,32.68,34.96,9.29,40.62,1006.32,2014.08,3017.79,3007.92,3221.94,500.33,483.16,33.65,0000 0000 0000 0000 000000
2014-09-10 06:23:01,0.06,1.01,0.00,28.53,32.69,34.96,9.34,40.61,1006.08,2014.00,3016.75,3007.10,3221.08,499.94,482.44,33.69,0000 0000 0000 0000 000000
2014-09-10 06:28:02,0.05,1.01,0.00,28.52,32.70,34.97,9.27,40.67,1005.94,2014.01,3015.85,3006.71,3220.29,499.84,482.38,33.73,0000 0000 0000 0000 000000
2014-09-10 06:33:04,0.04,1.02,0.00,28.54,32.70,34.97,9.36,40.72,1005.90,2014.00,3014.91,3006.04,3219.88,499.86,482.29,33.77,0000 0000 0000 0000 000000
2014-09-10 06:38:05,0.06,1.02,0.00,28.53,32.71,34.98,9.27,40.53,1005.91,2014.00,3013.90,3005.55,3219.07,499.69,482.16,33.81,0000 0000 0000 0000 000000
2014-09-10 06:43:06,0.04,1.02,0.00,28.51,32.72,34.99,9.15,40.59,1005.88,2014.00,3013.05,3005.01,3218.38,499.24,481.81,33.86,0000 0000 0000 0000 000000
2014-09-10 06:48:08,0.05,1.02,0.00,28.52,32.72,35.00,9.22,40.67,1005.87,2014.00,3012.17,3004.46,3217.91,499.78,482.14,33.90,0000 0000 0000 0000 000000
2014-09-10 06:53:09,0.04,1.03,0.00,28.53,32.73,35.00,9.25,40.81,1005.87,2014.00,3011.28,3003.97,3217.08,499.89,482.31,33.94,0000 0000 0000 0000 000000
2014-09-10 06:58:10,0.05,1.03,0.00,28.54,32.75,35.02,9.40,40.76,1005.87,2014.00,3010.68,3003.35,3216.69,500.47,482.85,33.98,0000 0000 0000 0000 000000
2014-09-10 07:03:11,0.03,1.03,0.00,28.53,32.75,35.02,9.33,40.92,1005.87,2013.99,3009.79,3002.89,3216.00,500.06,482.40,34.02,0000 0000 0000 0000 000000
2014-09-10 07:08:13,0.06,1.03,0.00,28.54,32.75,35.02,9.24,40.82,1005.84,2013.98,3008.94,3002.26,3215.43,499.63,482.14,34.06,0000 0000 0000 0000 000000
2014-09-10 07:13:14,0.03,1.03,0.00,28.52,32.77,35.04,9.30,40.76,1005.83,2013.98,3008.13,3001.92,3214.86,499.84,482.24,34.11,0000 0000 0000 0000 000000
2014-09-10 07:18:15,0.06,1.04,0.00,28.53,32.77,35.04,9.30,40.90,1005.76,2013.97,3007.20,3001.12,3214.05,499.81,482.21,34.15,0000 0000 0000 0000 000000
2014-09-10 07:23:16,0.06,1.04,0.00,28.53,32.78,35.05,9.36,40.79,1005.50,2013.96,3006.25,3000.60,3213.31,500.15,482.43,34.19,0000 0000 0000 0000 000000
2014-09-10 07:28:18,0.03,1.04,0.00,28.53,32.80,35.06,9.25,40.83,1005.42,2013.92,3005.19,3000.01,3212.72,499.84,482.09,34.23,0000 0000 0000 0000 000000
2014-09-10 07:33:19,0.06,1.04,0.00,28.53,32.80,35.06,9.26,40.88,1005.41,2013.96,3004.28,2999.57,3212.02,500.10,482.28,34.27,0000 0000 0000 0000 000000
2014-09-10 07:38:20,0.04,1.04,0.00,28.55,32.80,35.07,9.25,40.88,1005.40,2013.88,3003.54,2998.98,3211.37,500.23,482.44,34.31,0000 0000 0000 0000 000000
2014-09-10 07:43:21,0.05,1.05,0.00,28.55,32.82,35.08,9.34,40.97,1005.39,2013.88,3002.73,2998.33,3210.94,500.17,482.58,34.35,0000 0000 0000 0000 000000
2014-09-10 07:48:22,0.01,1.05,0.00,28.55,32.82,35.07,9.29,41.00,1005.39,2013.66,3001.76,2997.90,3210.20,499.86,481.81,34.40,0000 0000 0000 0000 000000
2014-09-10 07:53:23,0.04,1.05,0.00,28.53,32.82,35.08,9.29,41.08,1005.40,2013.30,3000.83,2997.09,3209.28,499.98,482.21,34.44,0000 0000 0000 0000 000000
2014-09-10 07:58:24,0.04,1.05,0.00,28.54,32.82,35.08,9.37,40.85,1005.40,2013.30,2999.91,2996.67,3208.85,499.56,481.93,34.48,0000 0000 0000 0000 000000
2014-09-10 08:03:26,0.04,1.05,0.00,28.52,32.83,35.09,9.35,40.99,1005.43,2013.20,2998.88,2995.99,3208.04,500.20,482.36,34.52,0000 0000 0000 0000 000000
2014-09-10 08:08:27,0.06,1.05,0.00,28.55,32.84,35.09,9.32,40.93,1005.48,2013.11,2997.77,2995.24,3207.25,500.45,482.75,34.56,0000 0000 0000 0000 000000
2014-09-10 08:13:28,0.05,1.06,0.00,28.53,32.85,35.09,9.27,40.77,1005.44,2013.09,2996.68,2994.81,3206.59,499.76,482.07,34.60,0000 0000 0000 0000 000000
2014-09-10 08:18:29,0.07,1.06,0.00,28.54,32.85,35.09,9.32,41.09,1005.51,2013.06,2995.51,2994.01,3205.77,500.08,482.34,34.65,0000 0000 0000 0000 000000
2014-09-10 08:23:30,0.08,1.06,0.00,28.52,32.85,35.10,9.29,40.98,1005.48,2013.11,2994.02,2993.16,3204.77,500.08,482.35,34.69,0000 0000 0000 0000 000000
2014-09-10 08:28:31,0.09,1.07,0.00,28.51,32.85,35.11,9.32,40.83,1005.46,2013.11,2992.19,2992.06,3203.61,499.89,482.22,34.73,0000 0000 0000 0000 000000
2014-09-10 08:33:33,0.11,1.07,0.00,28.52,32.85,35.10,9.23,40.83,1005.74,2013.08,2990.25,2990.82,3202.17,499.45,481.73,34.77,0000 0000 0000 0000 000000
2014-09-10 08:38:34,0.11,1.08,0.00,28.53,32.85,35.10,9.41,41.02,1005.87,2013.08,2988.33,2989.58,3200.84,500.33,482.65,34.81,0000 0000 0000 0000 000000
2014-09-10 08:43:35,0.09,1.08,0.00,28.54,32.86,35.10,9.23,40.76,1005.87,2013.09,2986.74,2988.66,3199.68,499.80,482.23,34.85,0000 0000 0000 0000 000000
2014-09-10 08:48:36,0.05,1.08,0.00,28.54,32.86,35.11,9.41,40.92,1005.87,2013.03,2985.41,2987.78,3198.85,500.53,483.02,34.89,0000 0000 0000 0000 000000
2014-09-10 08:53:37,0.07,1.09,0.00,28.52,32.87,35.11,9.39,41.01,1005.87,2013.05,2984.16,2986.97,3197.97,500.50,483.05,34.94,0000 0000 0000 0000 000000
2014-09-10 08:58:39,0.08,1.09,0.00,28.51,32.87,35.12,9.23,40.92,1005.87,2013.13,2982.82,2986.11,3197.04,499.89,482.25,34.98,0000 0000 0000 0000 000000
2014-09-10 09:03:40,0.07,1.09,0.00,28.52,32.87,35.12,9.34,40.74,1005.88,2013.04,2981.43,2985.24,3196.08,499.47,481.94,35.02,0000 0000 0000 0000 000000
2014-09-10 09:08:41,0.07,1.10,0.00,28.55,32.87,35.12,9.32,40.63,1005.88,2013.11,2980.33,2984.66,3195.30,499.82,482.26,35.06,0000 0000 0000 0000 000000
2014-09-10 09:13:42,0.04,1.10,0.00,28.54,32.87,35.12,9.36,40.91,1005.89,2013.08,2979.24,2984.00,3194.54,500.06,482.57,35.10,0000 0000 0000 0000 000000
2014-09-10 09:18:44,0.06,1.10,0.00,28.56,32.87,35.12,9.23,40.84,1005.89,2013.05,2978.14,2983.21,3193.85,499.42,481.98,35.14,0000 0000 0000 0000 000000
2014-09-10 09:23:44,0.06,1.10,0.00,28.54,32.87,35.11,9.38,41.02,1005.91,2013.01,2976.97,2982.53,3193.01,500.24,482.59,35.19,0000 0000 0000 0000 000000
2014-09-10 09:28:45,0.04,1.11,0.00,28.54,32.87,35.11,9.28,40.77,1005.90,2013.01,2975.90,2981.99,3192.13,499.91,482.40,35.23,0000 0000 0000 0000 000000
2014-09-10 09:33:47,0.07,1.11,0.00,28.53,32.87,35.11,9.34,40.93,1005.94,2013.01,2974.86,2981.23,3191.58,500.24,482.68,35.27,0000 0000 0000 0000 000000
2014-09-10 09:38:48,0.04,1.11,0.00,28.54,32.87,35.12,9.35,40.60,1005.93,2013.01,2973.83,2980.77,3190.89,500.38,482.71,35.31,0000 0000 0000 0000 000000
2014-09-10 09:43:49,0.05,1.11,0.00,28.52,32.87,35.13,9.34,40.95,1005.93,2013.01,2972.86,2980.04,3190.09,499.94,482.38,35.35,0000 0000 0000 0000 000000
2014-09-10 09:48:50,0.05,1.11,0.00,28.52,32.87,35.12,9.29,40.65,1005.92,2013.06,2971.83,2979.91,3189.74,499.71,482.29,35.39,0000 0000 0000 0000 000000
2014-09-10 09:53:52,0.05,1.12,0.00,28.53,32.87,35.13,9.28,40.52,1005.96,2013.09,2971.01,2979.13,3189.05,500.14,482.64,35.44,0000 0000 0000 0000 000000
2014-09-10 09:58:53,0.05,1.12,0.00,28.51,32.87,35.13,9.27,40.77,1006.15,2013.08,2970.22,2978.83,3188.59,499.61,482.14,35.48,0000 0000 0000 0000 000000
2014-09-10 10:03:54,0.12,1.12,0.00,28.50,32.88,35.12,9.34,40.43,1006.18,2013.28,2968.91,2978.06,3187.80,500.12,482.74,35.52,0000 0000 0000 0000 000000
2014-09-10 10:08:55,0.10,1.13,0.00,28.50,32.88,35.13,9.30,40.61,1006.08,2013.82,2967.60,2977.77,3187.03,499.99,482.57,35.56,0000 0000 0000 0000 000000
2014-09-10 10:13:56,0.07,1.13,0.00,28.52,32.88,35.13,9.33,40.71,1005.99,2013.98,2966.49,2977.05,3186.30,499.88,482.48,35.60,0000 0000 0000 0000 000000
2014-09-10 10:18:57,0.05,1.13,0.00,28.53,32.87,35.13,9.26,39.99,1006.02,2013.98,2965.60,2976.41,3185.77,499.94,482.49,35.64,0000 0000 0000 0000 000000
2014-09-10 10:23:59,0.03,1.14,0.00,28.51,32.88,35.12,9.30,40.45,1006.14,2013.99,2964.96,2976.01,3185.06,500.30,483.04,35.69,0000 0000 0000 0000 000000
2014-09-10 10:29:00,0.05,1.14,0.00,28.49,32.88,35.13,9.23,40.06,1006.18,2013.99,2964.13,2975.53,3184.80,499.20,481.89,35.73,0000 0000 0000 0000 000000
2014-09-10 10:34:02,0.03,1.14,0.00,28.49,32.88,35.12,9.37,40.07,1006.19,2013.99,2963.83,2975.02,3184.08,500.48,483.00,35.77,0000 0000 0000 0000 000000
2014-09-10 10:39:03,0.02,1.14,0.00,28.48,32.88,35.13,9.38,40.86,1006.23,2013.99,2963.21,2974.85,3184.00,500.66,483.29,35.81,0000 0000 0000 0000 000000
2014-09-10 10:44:04,0.02,1.14,0.00,28.49,32.87,35.13,9.25,40.63,1006.35,2013.99,2962.98,2974.23,3183.89,499.45,482.40,35.85,0000 0000 0000 0000 000000
2014-09-10 10:49:05,0.03,1.14,0.00,28.49,32.87,35.12,9.27,40.32,1006.36,2013.99,2962.47,2974.01,3183.29,499.66,482.41,35.89,0000 0000 0000 0000 000000
2014-09-10 10:54:07,0.01,1.14,0.00,28.48,32.87,35.12,9.29,40.40,1006.37,2013.99,2962.06,2973.98,3183.02,499.86,482.63,35.94,0000 0000 0000 0000 000000
2014-09-10 10:59:08,0.01,1.14,0.00,28.47,32.87,35.12,9.27,40.58,1006.37,2013.99,2962.00,2973.76,3183.00,499.74,482.21,35.98,0000 0000 0000 0000 000000
2014-09-10 11:04:09,0.01,1.14,0.00,28.46,32.87,35.12,9.31,40.48,1006.39,2013.99,2961.96,2973.26,3182.97,499.80,482.59,36.02,0000 0000 0000 0000 000000
2014-09-10 11:09:10,0.01,1.14,0.00,28.46,32.87,35.11,9.36,40.73,1006.46,2013.99,2961.91,2973.03,3182.82,499.93,482.82,36.06,0000 0000 0000 0000 000000
2014-09-10 11:14:11,0.02,1.15,0.00,28.44,32.87,35.10,9.28,40.69,1006.61,2013.98,2961.42,2973.00,3182.35,499.71,482.67,36.10,0000 0000 0000 0000 000000
2014-09-10 11:19:12,0.01,1.15,0.00,28.42,32.85,35.09,9.27,40.62,1006.79,2013.99,2961.09,2972.99,3182.04,499.89,482.74,36.14,0000 0000 0000 0000 000000
2014-09-10 11:24:14,0.00,1.15,0.00,28.41,32.85,35.09,9.38,40.73,1006.84,2013.99,2961.00,2972.97,3182.00,500.09,483.03,36.19,0000 0000 0000 0000 000000
2014-09-10 11:29:15,0.01,1.15,0.00,28.39,32.85,35.07,9.40,40.70,1006.68,2013.99,2960.95,2972.62,3182.00,500.22,483.25,36.23,0000 0000 0000 0000 000000
2014-09-10 11:34:16,0.02,1.15,0.00,28.39,32.85,35.07,9.25,40.82,1006.67,2013.99,2960.59,2972.31,3181.95,499.46,482.57,36.27,0000 0000 0000 0000 000000
2014-09-10 11:39:18,0.01,1.15,0.00,28.38,32.83,35.06,9.29,40.83,1006.75,2013.99,2960.14,2972.11,3181.86,499.79,483.00,36.31,0000 0000 0000 0000 000000
2014-09-10 11:44:19,0.00,1.15,0.00,28.39,32.82,35.07,9.35,40.38,1006.58,2013.99,2960.02,2972.03,3181.68,500.37,483.25,36.35,0000 0000 0000 0000 000000
2014-09-10 11:49:20,0.00,1.15,0.00,28.39,32.82,35.07,9.38,40.93,1006.51,2013.99,2960.01,2972.01,3181.56,499.70,482.64,36.39,0000 0000 0000 0000 000000
2014-09-10 11:54:21,0.00,1.15,0.00,28.37,32.81,35.04,9.32,40.91,1006.81,2013.99,2960.00,2972.00,3181.17,500.14,483.19,36.44,0000 0000 0000 0000 000000
2014-09-10 11:59:22,0.00,1.15,0.00,28.35,32.80,35.04,9.35,40.86,1006.86,2013.99,2959.99,2972.00,3181.09,500.09,483.44,36.48,0000 0000 0000 0000 000000
2014-09-10 12:04:23,-0.00,1.15,0.00,28.36,32.80,35.03,9.28,40.79,1007.04,2013.99,2960.00,2971.99,3181.06,499.73,483.02,36.52,0000 0000 0000 0000 000000
2014-09-10 12:09:25,0.00,1.15,0.00,28.35,32.80,35.02,9.34,40.88,1007.17,2013.99,2960.02,2971.99,3181.06,499.68,482.98,36.56,0000 0000 0000 0000 000000
2014-09-10 12:14:26,0.00,1.15,0.00,28.33,32.78,35.01,9.33,40.95,1007.29,2013.99,2960.01,2971.99,3181.05,500.01,483.49,36.60,0000 0000 0000 0000 000000
2014-09-10 12:19:27,0.00,1.15,0.00,28.32,32.77,35.01,9.28,41.00,1007.08,2013.99,2959.98,2971.93,3181.01,499.93,483.29,36.64,0000 0000 0000 0000 000000
2014-09-10 12:24:28,0.00,1.15,0.00,28.30,32.76,35.01,9.37,41.11,1006.86,2013.98,2959.96,2971.94,3181.00,500.45,483.68,36.69,0000 0000 0000 0000 000000
2014-09-10 12:29:29,0.02,1.15,0.00,28.29,32.75,35.00,9.37,41.07,1006.85,2013.99,2959.62,2971.72,3181.00,499.92,483.21,36.73,0000 0000 0000 0000 000000
2014-09-10 12:34:30,0.03,1.15,0.00,28.28,32.75,34.98,9.32,41.06,1006.85,2013.99,2959.11,2971.22,3180.96,499.98,483.26,36.77,0000 0000 0000 0000 000000
2014-09-10 12:39:31,0.01,1.15,0.00,28.27,32.73,34.97,9.37,41.35,1006.85,2013.99,2959.00,2971.02,3180.79,500.19,483.46,36.81,0000 0000 0000 0000 000000
2014-09-10 12:44:32,0.00,1.15,0.00,28.25,32.72,34.97,9.31,41.24,1006.86,2013.99,2958.98,2971.01,3180.51,500.51,483.62,36.85,0000 0000 0000 0000 000000
2014-09-10 12:49:34,0.01,1.15,0.00,28.24,32.71,34.96,9.43,41.42,1006.85,2013.99,2958.76,2971.00,3180.15,500.02,483.43,36.89,0000 0000 0000 0000 000000
2014-09-10 12:54:35,0.01,1.15,0.00,28.24,32.70,34.93,9.33,41.27,1006.85,2013.99,2958.11,2970.99,3180.01,499.84,483.19,36.93,0000 0000 0000 0000 000000
2014-09-10 12:59:36,0.00,1.15,0.00,28.20,32.68,34.94,9.38,41.42,1006.79,2013.99,2958.00,2970.98,3180.00,499.76,483.23,36.98,0000 0000 0000 0000 000000